Back to catalog

COSMOS 2251 DEB

AliveVLEO
NORAD 34955·DEBRIS·🇷🇺 Russia

Launched Jun 16, 1993 from Plesetsk Cosmodrome

Loading…

Next Passes (next 24 hours)

TLE

FreshSource: Space-Track

Epoch: Sep 14, 2026, 16:35 UTC

1 34955U 93036AEJ 26257.69157039  .00006320  00000-0  42460-3 0  9999
2 34955  74.0349  42.8500 0069774  39.0839 321.5360 15.04981472941802

Track COSMOS 2251 DEB in real time with AllMySat

Download on the App Store